| time (UTC) | temp F | wind direction | speed knots | gust knots | rain 1hr in | rain 24hr in | rain mn in | humidity % | barometer mb |
| 20260505040024 | 68 | 155 | 0.0 | 0.0 | 0.00 | 0.00 | 0.00 | 82 | 1017.1 |
| 20260505035520 | 68 | 157 | 0.0 | 0.0 | 0.00 | 0.00 | 0.00 | 81 | 1017.0 |
| 20260505035017 | 68 | 157 | 0.0 | 0.0 | 0.00 | 0.00 | 0.00 | 80 | 1017.1 |
| 20260505034513 | 68 | 157 | 0.0 | 0.0 | 0.00 | 0.00 | 0.00 | 80 | 1017.2 |
| 20260505034010 | 69 | 153 | 0.0 | 0.0 | 0.00 | 0.00 | 0.00 | 80 | 1017.3 |
| 20260505033507 | 69 | 165 | 0.0 | 0.0 | 0.00 | 0.00 | 0.00 | 79 | 1017.1 |
| 20260505033006 | 69 | 156 | 0.0 | 0.0 | 0.00 | 0.00 | 0.00 | 79 | 1017.1 |
| 20260505032503 | 69 | 153 | 0.0 | 0.0 | 0.00 | 0.00 | 0.00 | 78 | 1017.0 |
| 20260505031959 | 69 | 150 | 0.0 | 0.0 | 0.00 | 0.00 | 0.00 | 78 | 1017.0 |
| 20260505031456 | 70 | 151 | 0.0 | 0.0 | 0.00 | 0.00 | 0.00 | 78 | 1017.0 |
| 20260505030953 | 70 | 152 | 0.0 | 0.0 | 0.00 | 0.00 | 0.00 | 77 | 1016.7 |
| 20260505030449 | 71 | 140 | 0.9 | 0.9 | 0.00 | 0.00 | 0.00 | 77 | 1016.8 |
| 20260505025944 | 70 | 159 | 0.0 | 0.0 | 0.00 | 0.00 | 0.00 | 77 | 1016.9 |
| 20260505025442 | 70 | 166 | 0.0 | 0.0 | 0.00 | 0.00 | 0.00 | 78 | 1016.9 |
| 20260505024940 | 69 | 166 | 0.0 | 0.0 | 0.00 | 0.00 | 0.00 | 79 | 1017.1 |
| 20260505024437 | 69 | 164 | 0.0 | 0.0 | 0.00 | 0.00 | 0.00 | 79 | 1017.0 |
| 20260505023935 | 69 | 157 | 0.0 | 0.0 | 0.00 | 0.00 | 0.00 | 79 | 1017.0 |
| 20260505023431 | 69 | 161 | 0.0 | 0.0 | 0.00 | 0.00 | 0.00 | 79 | 1017.0 |
| 20260505022929 | 69 | 162 | 0.0 | 0.0 | 0.00 | 0.00 | 0.00 | 79 | 1017.2 |
| 20260505022427 | 69 | 158 | 0.0 | 0.0 | 0.00 | 0.00 | 0.00 | 79 | 1016.8 |
| 20260505021923 | 69 | 155 | 0.0 | 0.0 | 0.00 | 0.00 | 0.00 | 79 | 1016.9 |
| 20260505021420 | 69 | 153 | 0.0 | 0.0 | 0.00 | 0.00 | 0.00 | 79 | 1016.9 |
| 20260505020915 | 68 | 114 | 0.9 | 0.9 | 0.00 | 0.00 | 0.00 | 79 | 1016.8 |
| 20260505020411 | 68 | 156 | 0.0 | 0.0 | 0.00 | 0.00 | 0.00 | 80 | 1016.6 |
| 20260505015908 | 69 | 165 | 0.0 | 0.0 | 0.00 | 0.00 | 0.00 | 79 | 1016.3 |
| 20260505015405 | 69 | 152 | 0.0 | 0.0 | 0.00 | 0.00 | 0.00 | 78 | 1016.7 |
| 20260505014903 | 69 | 164 | 0.0 | 0.0 | 0.00 | 0.00 | 0.00 | 77 | 1016.6 |
| 20260505014359 | 70 | 143 | 0.0 | 0.0 | 0.00 | 0.00 | 0.00 | 77 | 1016.7 |
| 20260505013856 | 70 | 150 | 0.0 | 0.0 | 0.00 | 0.00 | 0.00 | 76 | 1016.3 |
| 20260505013353 | 71 | 174 | 0.0 | 0.0 | 0.00 | 0.00 | 0.00 | 76 | 1016.3 |
| 20260505012851 | 71 | 156 | 0.0 | 0.0 | 0.00 | 0.00 | 0.00 | 74 | 1015.9 |
| 20260505012349 | 72 | 166 | 0.9 | 0.9 | 0.00 | 0.00 | 0.00 | 74 | 1016.0 |
| 20260505011845 | 71 | 134 | 0.0 | 0.9 | 0.00 | 0.00 | 0.00 | 74 | 1015.7 |
| 20260505011342 | 72 | 128 | 0.0 | 1.7 | 0.00 | 0.00 | 0.00 | 73 | 1016.1 |
| 20260505010838 | 72 | 162 | 0.0 | 0.9 | 0.00 | 0.00 | 0.00 | 73 | 1015.7 |
| 20260505010333 | 73 | 171 | 0.9 | 0.9 | 0.00 | 0.00 | 0.00 | 71 | 1015.8 |
| 20260505005830 | 72 | 266 | 0.9 | 1.7 | 0.00 | 0.00 | 0.00 | 71 | 1015.6 |
| 20260505005327 | 72 | 136 | 1.7 | 1.7 | 0.00 | 0.00 | 0.00 | 74 | 1015.6 |
| 20260505004825 | 72 | 189 | 0.9 | 1.7 | 0.00 | 0.00 | 0.00 | 73 | 1015.7 |
| 20260505004321 | 73 | 169 | 0.0 | 0.0 | 0.00 | 0.00 | 0.00 | 73 | 1015.3 |
| 20260505003818 | 73 | 145 | 0.0 | 0.0 | 0.00 | 0.00 | 0.00 | 72 | 1015.3 |
| 20260505003315 | 73 | 164 | 0.0 | 0.9 | 0.00 | 0.00 | 0.00 | 71 | 1015.2 |
| 20260505002811 | 74 | 197 | 0.0 | 0.9 | 0.00 | 0.00 | 0.00 | 70 | 1015.4 |
| 20260505002309 | 74 | 223 | 0.9 | 1.7 | 0.00 | 0.00 | 0.00 | 69 | 1015.4 |
| 20260505001807 | 75 | 130 | 0.9 | 0.9 | 0.00 | 0.00 | 0.00 | 68 | 1015.4 |
| 20260505001303 | 75 | 152 | 0.0 | 0.0 | 0.00 | 0.00 | 0.00 | 67 | 1015.0 |
| 20260505000801 | 75 | 166 | 0.0 | 0.0 | 0.00 | 0.00 | 0.00 | 66 | 1015.3 |
| 20260505000258 | 75 | 174 | 0.0 | 0.9 | 0.00 | 0.00 | 0.00 | 65 | 1015.4 |
| 20260504235755 | 76 | 294 | 0.9 | 0.9 | 0.00 | 0.00 | 0.00 | 64 | 1015.2 |
| 20260504235251 | 76 | 201 | 0.0 | 0.9 | 0.00 | 0.00 | 0.00 | 63 | 1015.1 |
| 20260504234748 | 77 | 223 | 0.9 | 1.7 | 0.00 | 0.00 | 0.00 | 62 | 1014.9 |
| 20260504234246 | 77 | 173 | 0.0 | 0.9 | 0.00 | 0.00 | 0.00 | 61 | 1014.6 |
| 20260504233742 | 77 | 162 | 0.0 | 0.9 | 0.00 | 0.00 | 0.00 | 60 | 1014.8 |
| 20260504233237 | 77 | 260 | 1.7 | 1.7 | 0.00 | 0.00 | 0.00 | 58 | 1014.3 |
| 20260504232734 | 77 | 290 | 1.7 | 2.6 | 0.00 | 0.00 | 0.00 | 58 | 1014.5 |
| 20260504232226 | 78 | 257 | 2.6 | 2.6 | 0.00 | 0.00 | 0.00 | 57 | 1014.4 |
| 20260504231723 | 78 | 278 | 0.9 | 0.9 | 0.00 | 0.00 | 0.00 | 56 | 1014.5 |
| 20260504231219 | 79 | 297 | 2.6 | 2.6 | 0.00 | 0.00 | 0.00 | 54 | 1014.5 |
| 20260504230715 | 79 | 216 | 0.9 | 2.6 | 0.00 | 0.00 | 0.00 | 54 | 1014.2 |
| 20260504230214 | 80 | 189 | 0.9 | 1.7 | 0.00 | 0.00 | 0.00 | 51 | 1014.0 |
| 20260504225712 | 82 | 267 | 0.9 | 1.7 | 0.00 | 0.00 | 0.00 | 49 | 1014.2 |
| 20260504225208 | 82 | 178 | 0.0 | 1.7 | 0.00 | 0.00 | 0.00 | 47 | 1014.3 |
| 20260504224705 | 82 | 176 | 0.9 | 0.9 | 0.00 | 0.00 | 0.00 | 45 | 1014.4 |
| 20260504224203 | 82 | 186 | 0.0 | 0.9 | 0.00 | 0.00 | 0.00 | 46 | 1014.5 |
| 20260504223659 | 83 | 232 | 0.9 | 1.7 | 0.00 | 0.00 | 0.00 | 44 | 1014.2 |
| 20260504223154 | 83 | 193 | 0.9 | 1.7 | 0.00 | 0.00 | 0.00 | 45 | 1014.3 |
| 20260504222652 | 84 | 38 | 0.0 | 0.9 | 0.00 | 0.00 | 0.00 | 45 | 1014.3 |
| 20260504222148 | 83 | 212 | 1.7 | 1.7 | 0.00 | 0.00 | 0.00 | 45 | 1014.3 |
| 20260504221646 | 82 | 223 | 0.9 | 1.7 | 0.00 | 0.00 | 0.00 | 46 | 1014.3 |
| 20260504221143 | 83 | 299 | 2.6 | 2.6 | 0.00 | 0.00 | 0.00 | 46 | 1014.3 |
| 20260504220639 | 85 | 278 | 0.9 | 1.7 | 0.00 | 0.00 | 0.00 | 43 | 1014.3 |
| 20260504220137 | 84 | 160 | 0.0 | 1.7 | 0.00 | 0.00 | 0.00 | 44 | 1014.4 |
| 20260504215633 | 83 | 301 | 2.6 | 5.2 | 0.00 | 0.00 | 0.00 | 44 | 1014.7 |
| 20260504215131 | 83 | 141 | 0.9 | 1.7 | 0.00 | 0.00 | 0.00 | 39 | 1014.4 |
| 20260504214626 | 83 | 134 | 0.9 | 1.7 | 0.00 | 0.00 | 0.00 | 31 | 1014.4 |
| 20260504214123 | 84 | 214 | 0.9 | 2.6 | 0.00 | 0.00 | 0.00 | 32 | 1014.6 |
| 20260504213619 | 84 | 320 | 1.7 | 1.7 | 0.00 | 0.00 | 0.00 | 39 | 1014.3 |
| 20260504213116 | 84 | 85 | 0.0 | 1.7 | 0.00 | 0.00 | 0.00 | 33 | 1014.7 |
| 20260504212612 | 83 | 71 | 0.9 | 1.7 | 0.00 | 0.00 | 0.00 | 34 | 1014.4 |
| 20260504212110 | 84 | 213 | 2.6 | 2.6 | 0.00 | 0.00 | 0.00 | 34 | 1014.6 |
| 20260504211607 | 84 | 225 | 1.7 | 2.6 | 0.00 | 0.00 | 0.00 | 34 | 1014.5 |
| 20260504211103 | 85 | 172 | 0.9 | 1.7 | 0.00 | 0.00 | 0.00 | 34 | 1014.7 |
| 20260504210601 | 84 | 139 | 0.0 | 1.7 | 0.00 | 0.00 | 0.00 | 37 | 1014.6 |
| 20260504210057 | 85 | 55 | 0.9 | 4.3 | 0.00 | 0.00 | 0.00 | 36 | 1014.8 |
| 20260504205555 | 84 | 194 | 0.9 | 4.3 | 0.00 | 0.00 | 0.00 | 35 | 1014.8 |
| 20260504205053 | 84 | 77 | 2.6 | 2.6 | 0.00 | 0.00 | 0.00 | 37 | 1014.8 |
| 20260504204550 | 84 | 182 | 0.9 | 2.6 | 0.00 | 0.00 | 0.00 | 37 | 1015.0 |
| 20260504204050 | 84 | 206 | 0.9 | 1.7 | 0.00 | 0.00 | 0.00 | 37 | 1015.0 |
| 20260504203547 | 84 | 160 | 0.0 | 0.9 | 0.00 | 0.00 | 0.00 | 36 | 1014.9 |
| 20260504203044 | 84 | 139 | 1.7 | 1.7 | 0.00 | 0.00 | 0.00 | 36 | 1014.9 |
| 20260504202539 | 85 | 138 | 0.9 | 1.7 | 0.00 | 0.00 | 0.00 | 35 | 1015.0 |
| 20260504202037 | 84 | 70 | 0.9 | 0.9 | 0.00 | 0.00 | 0.00 | 37 | 1014.9 |
| 20260504201534 | 85 | 76 | 0.9 | 4.3 | 0.00 | 0.00 | 0.00 | 37 | 1014.8 |
| 20260504201032 | 85 | 29 | 1.7 | 2.6 | 0.00 | 0.00 | 0.00 | 36 | 1014.5 |
| 20260504200527 | 84 | 170 | 0.9 | 0.9 | 0.00 | 0.00 | 0.00 | 36 | 1014.8 |
| 20260504200025 | 84 | 113 | 0.0 | 1.7 | 0.00 | 0.00 | 0.00 | 35 | 1015.1 |
| 20260504195521 | 84 | 84 | 0.9 | 2.6 | 0.00 | 0.00 | 0.00 | 37 | 1015.3 |
| 20260504195017 | 84 | 124 | 2.6 | 2.6 | 0.00 | 0.00 | 0.00 | 38 | 1015.1 |
| 20260504194514 | 85 | 158 | 0.9 | 1.7 | 0.00 | 0.00 | 0.00 | 38 | 1015.2 |
| 20260504194009 | 85 | 128 | 1.7 | 2.6 | 0.00 | 0.00 | 0.00 | 38 | 1015.2 |
| 20260504193506 | 85 | 175 | 0.9 | 2.6 | 0.00 | 0.00 | 0.00 | 36 | 1015.3 |
| 20260504193005 | 85 | 117 | 0.9 | 1.7 | 0.00 | 0.00 | 0.00 | 37 | 1015.4 |
| 20260504192503 | 85 | 134 | 0.9 | 1.7 | 0.00 | 0.00 | 0.00 | 38 | 1015.2 |
| 20260504192001 | 85 | 318 | 1.7 | 1.7 | 0.00 | 0.00 | 0.00 | 38 | 1015.7 |
| 20260504191458 | 85 | 101 | 2.6 | 5.2 | 0.00 | 0.00 | 0.00 | 37 | 1015.6 |
| 20260504190954 | 84 | 53 | 0.9 | 2.6 | 0.00 | 0.00 | 0.00 | 39 | 1015.6 |
| 20260504190450 | 85 | 178 | 1.7 | 2.6 | 0.00 | 0.00 | 0.00 | 38 | 1015.9 |
| 20260504185946 | 84 | 236 | 0.9 | 2.6 | 0.00 | 0.00 | 0.00 | 38 | 1015.9 |
| 20260504185444 | 85 | 210 | 0.9 | 1.7 | 0.00 | 0.00 | 0.00 | 38 | 1015.8 |
| 20260504184939 | 84 | 157 | 2.6 | 4.3 | 0.00 | 0.00 | 0.00 | 38 | 1015.9 |
| 20260504184436 | 83 | 188 | 0.9 | 2.6 | 0.00 | 0.00 | 0.00 | 39 | 1016.1 |
| 20260504183931 | 84 | 134 | 2.6 | 2.6 | 0.00 | 0.00 | 0.00 | 38 | 1016.4 |
| 20260504183429 | 84 | 171 | 1.7 | 4.3 | 0.00 | 0.00 | 0.00 | 38 | 1016.4 |
| 20260504182927 | 83 | 117 | 1.7 | 4.3 | 0.00 | 0.00 | 0.00 | 37 | 1016.5 |
| 20260504182423 | 83 | 170 | 1.7 | 5.2 | 0.00 | 0.00 | 0.00 | 37 | 1016.6 |
| 20260504181921 | 84 | 133 | 0.9 | 4.3 | 0.00 | 0.00 | 0.00 | 38 | 1016.6 |
| 20260504181418 | 84 | 142 | 2.6 | 5.2 | 0.00 | 0.00 | 0.00 | 39 | 1016.5 |
| 20260504180917 | 83 | 126 | 1.7 | 2.6 | 0.00 | 0.00 | 0.00 | 39 | 1016.6 |
| 20260504180415 | 84 | 137 | 2.6 | 4.3 | 0.00 | 0.00 | 0.00 | 39 | 1016.5 |
| 20260504175913 | 83 | 184 | 0.9 | 2.6 | 0.00 | 0.00 | 0.00 | 39 | 1016.5 |
| 20260504175409 | 83 | 166 | 0.9 | 1.7 | 0.00 | 0.00 | 0.00 | 38 | 1016.8 |
| 20260504174907 | 83 | 243 | 1.7 | 2.6 | 0.00 | 0.00 | 0.00 | 41 | 1016.9 |
| 20260504174405 | 83 | 245 | 0.9 | 1.7 | 0.00 | 0.00 | 0.00 | 41 | 1016.8 |
| 20260504173902 | 83 | 211 | 0.9 | 4.3 | 0.00 | 0.00 | 0.00 | 40 | 1016.9 |
| 20260504173358 | 84 | 9 | 0.9 | 2.6 | 0.00 | 0.00 | 0.00 | 39 | 1017.0 |
| 20260504172855 | 84 | 279 | 0.9 | 2.6 | 0.00 | 0.00 | 0.00 | 39 | 1017.2 |
| 20260504172352 | 84 | 131 | 1.7 | 4.3 | 0.00 | 0.00 | 0.00 | 39 | 1017.2 |
| 20260504171847 | 83 | 211 | 0.9 | 1.7 | 0.00 | 0.00 | 0.00 | 41 | 1017.2 |
| 20260504171345 | 82 | 67 | 2.6 | 2.6 | 0.00 | 0.00 | 0.00 | 41 | 1017.2 |
| 20260504170842 | 80 | 41 | 0.9 | 1.7 | 0.00 | 0.00 | 0.00 | 43 | 1017.2 |
| 20260504170338 | 82 | 341 | 1.7 | 1.7 | 0.00 | 0.00 | 0.00 | 41 | 1017.3 |
| 20260504160257 | 80 | 154 | 2.6 | 7.0 | 0.00 | 0.00 | 0.00 | 48 | 1018.1 |
| 20260504150722 | 79 | 146 | 0.9 | 4.3 | 0.00 | 0.00 | 0.00 | 52 | 1018.3 |
| 20260504150219 | 79 | 36 | 0.9 | 1.7 | 0.00 | 0.00 | 0.00 | 53 | 1018.4 |
| 20260504141148 | 77 | 115 | 0.0 | 2.6 | 0.00 | 0.00 | 0.00 | 60 | 1018.4 |
| 20260504140645 | 77 | 99 | 0.0 | 1.7 | 0.00 | 0.00 | 0.00 | 61 | 1018.4 |
| 20260504140141 | 76 | 80 | 0.9 | 1.7 | 0.00 | 0.00 | 0.00 | 62 | 1018.3 |
| 20260504130609 | 73 | 129 | 0.0 | 0.0 | 0.00 | 0.00 | 0.00 | 72 | 1018.0 |
| 20260504130106 | 72 | 99 | 0.0 | 0.9 | 0.00 | 0.00 | 0.00 | 73 | 1017.9 |
| 20260504110457 | 56 | 172 | 0.0 | 0.0 | 0.00 | 0.00 | 0.00 | 97 | 1017.5 |
| 20260504100413 | 56 | 164 | 0.0 | 0.0 | 0.00 | 0.00 | 0.00 | 96 | 1017.0 |
| 20260504081806 | 58 | 167 | 0.0 | 0.0 | 0.00 | 0.00 | 0.00 | 95 | 1017.1 |
| 20260504081303 | 58 | 162 | 0.0 | 0.0 | 0.00 | 0.00 | 0.00 | 95 | 1017.1 |
| 20260504080759 | 58 | 167 | 0.0 | 0.0 | 0.00 | 0.00 | 0.00 | 94 | 1017.1 |
| 20260504080255 | 58 | 167 | 0.0 | 0.0 | 0.00 | 0.00 | 0.00 | 94 | 1017.3 |
| 20260504070223 | 59 | 164 | 0.0 | 0.0 | 0.00 | 0.00 | 0.00 | 93 | 1017.4 |
| 20260504060144 | 59 | 174 | 0.0 | 0.0 | 0.00 | 0.00 | 0.00 | 91 | 1017.5 |
| 20260504050612 | 61 | 167 | 0.0 | 0.0 | 0.00 | 0.00 | 0.00 | 89 | 1018.1 |
| 20260504050109 | 61 | 167 | 0.0 | 0.0 | 0.00 | 0.00 | 0.00 | 88 | 1018.1 |
| 20260504045606 | 61 | 167 | 0.0 | 0.0 | 0.00 | 0.00 | 0.00 | 88 | 1018.1 |
| 20260504045101 | 61 | 174 | 0.0 | 0.0 | 0.00 | 0.00 | 0.00 | 88 | 1018.2 |
| 20260504044559 | 61 | 168 | 0.0 | 0.0 | 0.00 | 0.00 | 0.00 | 87 | 1018.4 |
| 20260504044055 | 62 | 174 | 0.0 | 0.0 | 0.00 | 0.00 | 0.00 | 87 | 1018.4 |
| 20260504043553 | 62 | 168 | 0.0 | 0.0 | 0.00 | 0.00 | 0.00 | 86 | 1018.3 |
| 20260504043050 | 62 | 153 | 0.0 | 0.0 | 0.00 | 0.00 | 0.00 | 86 | 1018.2 |
| 20260504042547 | 62 | 177 | 0.0 | 0.0 | 0.00 | 0.00 | 0.00 | 86 | 1018.3 |
| 20260504042044 | 62 | 168 | 0.0 | 0.0 | 0.00 | 0.00 | 0.00 | 86 | 1018.5 |
| 20260504041539 | 62 | 177 | 0.0 | 0.0 | 0.00 | 0.00 | 0.00 | 85 | 1018.4 |
| 20260504041036 | 63 | 168 | 0.0 | 0.0 | 0.00 | 0.00 | 0.00 | 85 | 1018.6 |
| 20260504040533 | 63 | 164 | 0.0 | 0.0 | 0.00 | 0.00 | 0.00 | 85 | 1018.5 |